TIANLIAN 2-04

Last updated on Mon Oct 20 2025 00:02:51 GMT+0000 (Coordinated Universal Time)

1 63361U 25062A 25292.06902300 -.00000148 00000+0 00000+0 0 9996 2 63361 4.9976 277.7477 0034082 357.7349 217.1940 1.00272930 2181
UTC large
Height (km)
Speed (km/s)
/
Latitude / Longitude
Inclination (degrees)
Orbital Period (minutes)
Azimuth
Elevation
Range (km)
Doppler Factor

Next 0 passes for location: London (51.5072 / 0.1276)

Sorry there are no passes over London.